Flag for Hungary Weather past 2 weeks in Miskolc, Hungary

Now
56 °F

Light rain. Overcast.


Feels Like: 56 °F
Forecast: 52 / 64 °F
Wind: No wind

Location: Miskolc

Current Time: Oct 2, 2014 at 3:14:30 AM

Latest Report: Oct 2, 2014 at 2:00 AM


Visibility: 9 mi

Pressure: 30.28 "Hg

Humidity: 93%

Dew point: 54 °F

Location of MiskolcLocation

Historic Weather in Miskolc — Graph

°F

Miskolc temperature yesterday

Maximum temperature yesterday: 65 °F (at 2:00 PM)
Minimum temperature yesterday: 53 °F (at 4:00 AM)
Average temperature yesterday: 58 °F

Past Weeks' High & Low Weather Summary

 TemperatureHumidityPressure
High77 °F (Sep 21, 4:00 PM)93% (Sep 18, 4:00 AM)30.43 "Hg (Sep 18, 4:00 AM)
Low41 °F (Sep 24, 7:00 AM)40% (Sep 18, 4:00 PM)29.67 "Hg (Sep 22, 12:00 PM)
Average57 °F78%30.11 "Hg
* Reported Sep 17 2:00 AM — Oct 2 2:00 AM, Miskolc, Weather by CustomWeather, © 2014

Note: Actual official high and low records may vary slightly from our data, if they occured in-between our weather recording intervals... More about our weather records

Advertising

Miskolc weather history for previous 24 hours

 ConditionsComfort  
Time TempWeatherWind HumidityBarometerVisibility
2:00 AM
Oct 2
56 °FLight rain. Overcast.No wind93%30.28 "Hg9 mi
1:00 AM56 °FLight rain. Overcast.1 mph92%30.28 "Hg12 mi
12:00 AM56 °FLight rain. Overcast.1 mph92%30.29 "Hg12 mi
11:00 PM
Oct 1
57 °FLight rain. Overcast.1 mph90%30.29 "Hg12 mi
10:00 PM58 °FLight rain. Overcast.1 mph88%30.28 "Hg12 mi
9:00 PM58 °FLight rain. Overcast.1 mph88%30.27 "Hg12 mi
8:00 PM58 °FLight rain. Overcast.1 mph89%30.26 "Hg12 mi
7:00 PM59 °FLight rain. Overcast.1 mph87%30.26 "Hg12 mi
6:00 PM60 °FOvercast.1 mph85%30.25 "Hg12 mi
5:00 PM62 °FOvercast.1 mph89%30.25 "Hg12 mi
4:00 PM62 °FLight rain. Overcast.1 mph88%30.26 "Hg7 mi
3:00 PM62 °FLight rain. Overcast.1 mph84%30.28 "Hg7 mi
2:00 PM65 °FLight rain. Overcast.1 mph73%30.27 "Hg9 mi
1:00 PM64 °FOvercast.No wind72%30.27 "Hg9 mi
12:00 PM63 °FOvercast.No wind75%30.28 "Hg9 mi
11:00 AM61 °FOvercast.No wind77%30.28 "Hg9 mi
10:00 AM60 °FOvercast.1 mph78%30.27 "Hg9 mi
9:00 AM58 °FOvercast.No wind86%30.27 "Hg9 mi
8:00 AM55 °FOvercast.No wind91%30.26 "Hg9 mi
7:00 AM54 °FOvercast.No wind91%30.26 "Hg9 mi
6:00 AM53 °FOvercast.No wind91%30.27 "Hg7 mi
5:00 AM53 °FOvercast.No wind91%30.27 "Hg9 mi
4:00 AM53 °FOvercast.No wind90%30.27 "Hg11 mi
3:00 AM54 °FPassing clouds.No wind90%30.26 "Hg12 mi
Weather by CustomWeather, © 2014

See weather overviewHow to use our weather pages